Location: ????????
(54.6123°N, 39.2099°E)
Time: 00:58:39
(UTC+00:00)

Exosat Rocket - Pass Details

Date: 19 May 2025
Orbit: 761 x 2512 km, 72.3° (Epoch: 13 June)

Event Time Altitude Azimuth Distance (km) Brightness Sun altitude
Rises 21:09:26 0° 327° (NNW) 3,401 7.9 -15.4°
Reaches altitude 10° 21:12:00 10° 322° (NW) 2,372 6.9 -15.4°
Maximum altitude 21:16:53 47° 249° (WSW) 1,007 4.0 -15.4°
Enters shadow 21:19:33 24° 188° (S) 1,551 4.5 -15.4°
